Retour au catalogue

COSMOS 1720

ActifMilitaireLEO
NORAD 16453·PAYLOAD·🇷🇺 Russia

Lancé Jan 9, 1986 depuis Plesetsk Cosmodrome

Loading…

Prochains Passages (prochaines 24 heures)

TLE

FraisSource: Space-Track

Époque: Sep 14, 2026, 23:35 UTC

1 16453U 86002E   26257.98265773  .00000006  00000-0  14158-3 0  9992
2 16453  73.9889 143.8739 0027682 155.5047 217.0222 12.50636970857355

Suivez COSMOS 1720 en temps réel avec AllMySat

Download on the App Store